{"data":{"norad_id":47797,"epoch":"2026-09-20T04:18:16.314336Z","epoch_age_seconds":53490,"freshness":"FRESH","line1":"1 47797U 21018L   26263.17935549 -.00004084  00000+0 -11998-3 0  9996","line2":"2 47797  53.1582  70.2702 0000815 135.1139 224.9928 15.31687292306341","mean_motion":15.31687292,"eccentricity":8.15e-5,"inclination_deg":53.1582,"raan_deg":70.2702,"arg_perigee_deg":135.1139,"mean_anomaly_deg":224.9928,"bstar":-0.00011998,"rev_number":30634,"period_min":94.013967963377,"perigee_km":470.21969081178,"apogee_km":471.3360639368,"semimajor_km":6848.9148773743,"source":"CELESTRAK","updated_at":"2026-09-20T09:00:38.605939Z"}}